Regional Weather Roundup
Issued by NWS Charleston, SC

Current Version | Previous Version | Graphics & Text | Print | Product List | Glossary On
Versions: 1 2 3 4 5 6 7 8 9 10 11 12 13 14 15 16 17 18 19 20 21 22 23 24 25 26 27 28 29 30 31 32 33 34 35 36 37 38 39 40 41 42 43 44 45 46 47 48 49 50
000 ASUS42 KCHS 291212 RWRCHS REGIONAL WEATHER ROUNDUP NATIONAL WEATHER SERVICE CHARLESTON SC 800 AM EDT SAT APR 29 2017 NOTE: "FAIR" INDICATES FEW OR NO CLOUDS BELOW 12,000 FEET WITH NO SIGNIFICANT WEATHER AND/OR OBSTRUCTIONS TO VISIBILITY. NOT ALL STATIONS ARE QUALITY CONTROLLED. USE DATA WITH CAUTION... ESPECIALLY DEWPOINT OBSERVATIONS. SCZ027-030-031-034>040-042>050-291300- ...SOUTHEAST SOUTH CAROLINA... CITY SKY/WX TMP DP RH WIND PRES REMARKS N CHARLESTON PTSUNNY 75 72 90 S6 30.21R 6HR MIN TEMP: 73; 6HR MAX TEMP: 75; WATERFRONT PRK N/A 74 73 96 S5 30.18R JOHNS ISLAND CLOUDY 75 75 100 S6 30.21R FOG PINOPOLIS N/A 73 72 94 CALM 30.12R MONCKS CORNER FAIR 73 72 94 CALM 30.22R FOG SUMMERVILLE FAIR 73 72 94 CALM 30.22R BEAUFORT MCAS PTSUNNY 77 74 90 S7 30.20R 6HR MIN TEMP: 75; 6HR MAX TEMP: 77; BEAUFORT ARPT CLOUDY 75 72 88 S6 30.20R FOG HILTON HEAD IS PTSUNNY 75 75 100 S7 30.20R WALTERBORO MOSUNNY 73 72 94 S6 30.21R ALLENDALE PTSUNNY 73 72 94 SE3 30.19R FOG ...SOUTHERN MIDLANDS AND PEE DEE... CITY SKY/WX TMP DP RH WIND PRES REMARKS GEORGETOWN PTSUNNY 73 73 100 CALM 30.24R KINGSTREE CLOUDY 72 70 94 E3 30.22R ORANGEBURG PTSUNNY 72 71 97 SE3 30.20R 6HR MIN TEMP: 72; 6HR MAX TEMP: 74; BARNWELL CLOUDY 75 73 94 SE7 30.20R AIKEN CLOUDY 70 68 94 SE7 30.23R MANNING FAIR 72 70 94 S16 30.21S COLUMBIA MOSUNNY 73 69 87 SE5 30.19R 6HR MIN TEMP: 71; 6HR MAX TEMP: 75; SUMTER SUNNY 73 70 91 SE3 30.19R 6HR MIN TEMP: 71; 6HR MAX TEMP: 73; FLORENCE MOSUNNY 74 72 93 S7 30.22R 6HR MIN TEMP: 72; 6HR MAX TEMP: 74; MYRTLE BEACH NOT AVBL N MYRTLE BEACH PTSUNNY 75 73 93 S10 30.23R 6HR MIN TEMP: 73; 6HR MAX TEMP: 75; $$ GAZ063-065-086>088-099>101-113>116-118-119-134>141-150-291300- ...SOUTHEAST GEORGIA... CITY SKY/WX TMP DP RH WIND PRES REMARKS SAVANNAH ARPT PTSUNNY 76 70 82 S9 30.19R 6HR MIN TEMP: 75; 6HR MAX TEMP: 76; HUNTER AAF MOSUNNY 77 77 100 S5 30.17R 6HR MIN TEMP: 75; 6HR MAX TEMP: 76; FORT STEWART SUNNY 74 71 89 SE7 30.15R 6HR MIN TEMP: 73; 6HR MAX TEMP: 75; STATESBORO MOSUNNY 74 74 100 S3 30.18R SYLVANIA MOSUNNY N/A N/A N/A CALM 30.19R CLAXTON FAIR N/A N/A N/A CALM 30.18R ...CSRA...CENTRAL AND FAR SOUTHEAST GEORGIA... CITY SKY/WX TMP DP RH WIND PRES REMARKS THOMSON MOSUNNY 71 68 90 S3 30.23R AUGUSTA-BUSH CLOUDY 73 71 93 SE5 30.17R 6HR MIN TEMP: 70; 6HR MAX TEMP: 77; AUGUSTA-DANIEL CLOUDY 73 68 84 SE7 30.19R SWAINSBORO CLOUDY 73 72 94 SE7 30.18R VIDALIA CLOUDY 77 72 83 S7 30.17R EASTMAN FAIR 73 73 99 E3 30.17R HAZLEHURST FAIR 74 74 100 S5 30.14R ALMA PTSUNNY 74 72 93 SE7 30.15R 6HR MIN TEMP: 71; 6HR MAX TEMP: 74; WAYCROSS PTSUNNY 76 76 100 S8 30.15R JESUP FAIR 73 70 88 S3 30.17R BAXLEY CLOUDY 75 75 100 S7 30.16R BRUNSWICK CLOUDY 77 73 88 S7 30.18R SAINT SIMONS CLOUDY 76 73 91 S9 30.17R 6HR MIN TEMP: 76; 6HR MAX TEMP: 76; $$ SCZ027-028-034-036>038-045-046-048>050-GAZ119-141-291300- ...LAKE AND SUPPLEMENTAL COASTAL OBSERVATIONS... STATION/POSITION TIME TEMP WIND PRES WAVE SWELL AIR SEA DIR/SP/G HT/PER HT/PER/DIR (UTC) (F) (DEG/KT/KT) (MB) (FT/S) (FT/S/D) WINYAH BAY NOT AVBL LAKE MURRAY 1120 72 150/ 6/ 9 1021.3R ACE BASIN NERRS 1045 75 CALM 1022.0 FORT PULASKI 1148 75 76 160/ 4/ 7 1022.5R SAPELO ISLAND 1100 75 170/ 11 1021.0 $$ ANZ835-935-AMZ111-154-330-350-352-354-370-450-454-472-291300- ...C-MAN AND BUOY OBSERVATIONS... STATION/POSITION TIME TEMP WIND PRES WAVE SWELL AIR SEA DIR/SP/G HT/PER HT/PER/DIR (UTC) (F) (DEG/KT/KT) (MB) (FT/S) (FT/S/D) BUOY 41004 1150 75 74 180/ 8/ 8 1023.1R 4/ 6 3/150/ 6 BUOY 41008 1050 74 73 170/ 8/ 10 1020.8 3/ 5 3/130/ 5 FOLLY BEACH CMAN 1100 74 190/ 6/ 7 1022.8R CAPERS NEARSHORE 1108 73 74 190/ 6/ 8 1022.5R FRIPP NEARSHORE 1108 74 73 190/ 8/ 10 1021.6R STATION/POSITION TIME TEMP WIND PRES WAVE SWELL AIR SEA DIR/SP/G HT/PER HT/PER/DIR (UTC) (F) (DEG/KT/KT) (MB) (FT/S) (FT/S/D) 5E ST. MARYS GA 1200 74 N/A 3/ 5 FRYING PAN BUOY 1150 75 73 200/ 10/ 12 1024.2R 4/ 5 3/160/ 5 BUOY 41025 1150 77 76 230/ 14/ 16 1023.7R 4/ 6 2/130/ 7 CAPE LOOKOUT NC 1100 72 270/ 4/ 5 1023.7R BUOY 41002 1150 74 76 150/ 10/ 10 1025.2R 4/ 7 3/110/ 7 BUOY 41010 1150 77 78 140/ 14/ 17 1022.5R 4/ 7 2/ 80/11 ST AUGUSTINE FL 1200 75 76 160/ 16/ 18 1022.1R $$

USA.gov is the U.S. government's official web portal to all federal, state and local government web resources and services.